Location: Newark
(52.3500°N, 175.9667°E)
Time: 21:21:42
(UTC+00:00)

Transit 4A - Pass Details

Date: 22 April 2021
Orbit: 871 x 974 km, 66.8° (Epoch: 16 May)

Event Time Altitude Azimuth Distance (km) Brightness Sun altitude
Rises 15:05:38 0° 288° (WNW) 3,585 10.7 -15.5°
Reaches altitude 10° 15:08:53 10° 304° (NW) 2,622 10.2 -15.2°
Maximum altitude 15:13:22 21° 352° (N) 1,931 10.0 -14.7°
Drops below altitude 10° 15:17:48 10° 41° (NE) 2,573 11.6 -14.2°
Sets 15:20:57 0° 57° (ENE) 3,497 12.7 -13.9°
